TimePST,TemperatureF,Dew PointF,Humidity,Sea Level PressureIn,VisibilityMPH,Wind Direction,Wind SpeedMPH,Gust SpeedMPH,PrecipitationIn,Events,Conditions,WindDirDegrees,DateUTC
12:15 AM,51.8,46.4,82,30.29,10.0,SSE,18.4,26.5,N/A,,Overcast,150,2013-03-01 08:15:00
12:35 AM,51.8,46.4,82,30.30,10.0,South,19.6,24.2,N/A,,Overcast,170,2013-03-01 08:35:00
12:55 AM,51.8,48.2,88,30.29,10.0,SSE,16.1,20.7,N/A,,Overcast,160,2013-03-01 08:55:00
1:15 AM,53.6,46.4,77,30.30,10.0,South,17.3,26.5,N/A,,Overcast,180,2013-03-01 09:15:00
2:15 AM,53.6,48.2,82,30.31,10.0,South,15.0,19.6,N/A,,Overcast,170,2013-03-01 10:15:00
2:35 AM,53.6,48.2,82,30.30,10.0,SSE,17.3,21.9,N/A,,Overcast,160,2013-03-01 10:35:00
2:55 AM,53.6,48.2,82,30.30,10.0,SSE,13.8,18.4,N/A,,Overcast,150,2013-03-01 10:55:00
3:15 AM,53.6,48.2,82,30.29,10.0,SSE,18.4,24.2,N/A,,Overcast,150,2013-03-01 11:15:00
3:35 AM,53.6,48.2,82,30.29,10.0,South,13.8,-,N/A,,Overcast,170,2013-03-01 11:35:00
3:55 AM,53.6,48.2,82,30.29,10.0,SSE,15.0,21.9,N/A,,Overcast,160,2013-03-01 11:55:00
4:15 AM,53.6,48.2,82,30.29,10.0,SSE,18.4,26.5,N/A,,Overcast,160,2013-03-01 12:15:00
4:35 AM,53.6,48.2,82,30.28,10.0,SSE,18.4,27.6,N/A,,Overcast,160,2013-03-01 12:35:00
4:55 AM,53.6,46.4,77,30.27,10.0,SSE,19.6,28.8,N/A,,Overcast,150,2013-03-01 12:55:00
5:15 AM,53.6,48.2,82,30.28,10.0,SSE,19.6,25.3,N/A,,Overcast,150,2013-03-01 13:15:00
5:35 AM,53.6,46.4,77,30.28,10.0,South,17.3,20.7,N/A,,Overcast,170,2013-03-01 13:35:00
6:15 AM,53.6,46.4,77,30.29,10.0,South,13.8,26.5,N/A,,Overcast,180,2013-03-01 14:15:00
6:35 AM,53.6,46.4,77,30.29,10.0,South,18.4,24.2,N/A,,Overcast,180,2013-03-01 14:35:00
7:15 AM,53.6,46.4,77,30.30,10.0,South,19.6,27.6,N/A,,Overcast,170,2013-03-01 15:15:00
7:35 AM,53.6,46.4,77,30.31,10.0,South,16.1,28.8,N/A,,Overcast,180,2013-03-01 15:35:00
8:15 AM,53.6,46.4,77,30.33,10.0,South,16.1,25.3,N/A,,Overcast,190,2013-03-01 16:15:00
8:35 AM,53.6,46.4,77,30.33,10.0,South,17.3,25.3,N/A,,Overcast,170,2013-03-01 16:35:00
9:15 AM,53.6,46.4,77,30.34,10.0,South,18.4,23.0,N/A,,Overcast,180,2013-03-01 17:15:00
9:35 AM,53.6,46.4,77,30.35,10.0,SSE,15.0,25.3,N/A,,Overcast,160,2013-03-01 17:35:00
10:15 AM,53.6,46.4,77,30.35,10.0,SSE,16.1,23.0,N/A,,Overcast,160,2013-03-01 18:15:00
10:35 AM,53.6,46.4,77,30.35,10.0,South,17.3,27.6,N/A,,Overcast,170,2013-03-01 18:35:00
11:15 AM,53.6,46.4,77,30.34,10.0,SSE,20.7,28.8,N/A,,Overcast,160,2013-03-01 19:15:00
11:35 AM,53.6,46.4,77,30.33,10.0,SSE,19.6,26.5,N/A,,Overcast,160,2013-03-01 19:35:00
11:55 AM,55.4,46.4,72,30.33,10.0,SSE,17.3,25.3,N/A,,Overcast,160,2013-03-01 19:55:00
12:15 PM,55.4,48.2,77,30.33,10.0,SSE,16.1,25.3,N/A,,Overcast,160,2013-03-01 20:15:00
12:35 PM,55.4,46.4,72,30.32,10.0,SSE,20.7,31.1,N/A,,Overcast,160,2013-03-01 20:35:00
12:55 PM,55.4,48.2,77,30.32,10.0,South,21.9,29.9,N/A,,Overcast,170,2013-03-01 20:55:00
1:15 PM,57.2,48.2,72,30.31,10.0,South,24.2,31.1,N/A,,Overcast,170,2013-03-01 21:15:00
1:35 PM,57.2,46.4,67,30.30,10.0,SSE,24.2,31.1,N/A,,Overcast,160,2013-03-01 21:35:00
1:55 PM,57.2,46.4,67,30.30,10.0,SSE,23.0,29.9,N/A,,Overcast,160,2013-03-01 21:55:00
2:15 PM,55.4,46.4,72,30.29,10.0,SSE,26.5,31.1,N/A,,Overcast,160,2013-03-01 22:15:00
2:35 PM,57.2,46.4,67,30.29,10.0,SSE,25.3,32.2,N/A,,Overcast,160,2013-03-01 22:35:00
2:55 PM,57.2,46.4,67,30.30,10.0,South,21.9,31.1,N/A,,Overcast,170,2013-03-01 22:55:00
3:15 PM,57.2,46.4,67,30.30,10.0,South,20.7,28.8,N/A,,Overcast,170,2013-03-01 23:15:00
3:35 PM,57.2,46.4,67,30.30,10.0,SSE,20.7,33.4,N/A,,Overcast,160,2013-03-01 23:35:00
3:55 PM,57.2,46.4,67,30.30,10.0,SSE,19.6,-,N/A,,Overcast,160,2013-03-01 23:55:00
4:15 PM,57.2,46.4,67,30.30,10.0,South,18.4,26.5,N/A,,Overcast,170,2013-03-02 00:15:00
4:35 PM,55.4,46.4,72,30.29,10.0,South,16.1,31.1,N/A,,Mostly Cloudy,170,2013-03-02 00:35:00
4:55 PM,55.4,46.4,72,30.30,10.0,South,16.1,-,N/A,,Overcast,180,2013-03-02 00:55:00
5:15 PM,55.4,46.4,72,30.30,10.0,SSE,16.1,-,N/A,,Overcast,160,2013-03-02 01:15:00
5:35 PM,55.4,46.4,72,30.30,10.0,South,16.1,-,N/A,,Overcast,170,2013-03-02 01:35:00
5:55 PM,55.4,46.4,72,30.31,10.0,SSE,15.0,21.9,N/A,,Overcast,160,2013-03-02 01:55:00
6:15 PM,55.4,46.4,72,30.30,10.0,SSE,17.3,-,N/A,,Overcast,160,2013-03-02 02:15:00
6:35 PM,55.4,46.4,72,30.31,10.0,SSE,16.1,25.3,N/A,,Overcast,160,2013-03-02 02:35:00
6:55 PM,55.4,46.4,72,30.31,10.0,South,17.3,23.0,N/A,,Overcast,170,2013-03-02 02:55:00
7:15 PM,55.4,46.4,72,30.31,10.0,South,15.0,19.6,N/A,,Overcast,170,2013-03-02 03:15:00
7:35 PM,55.4,46.4,72,30.31,10.0,SSE,15.0,18.4,N/A,,Overcast,160,2013-03-02 03:35:00
7:55 PM,55.4,44.6,67,30.30,10.0,SSE,16.1,24.2,N/A,,Overcast,160,2013-03-02 03:55:00
8:15 PM,53.6,44.6,72,30.30,10.0,South,16.1,-,N/A,,Overcast,170,2013-03-02 04:15:00
8:35 PM,55.4,44.6,67,30.30,10.0,SSE,15.0,26.5,N/A,,Overcast,160,2013-03-02 04:35:00
8:55 PM,55.4,46.4,72,30.31,10.0,SSE,11.5,19.6,N/A,,Overcast,150,2013-03-02 04:55:00
9:15 PM,55.4,46.4,72,30.30,10.0,SSE,13.8,23.0,N/A,,Overcast,160,2013-03-02 05:15:00
9:35 PM,53.6,46.4,77,30.30,10.0,SSE,13.8,-,N/A,,Overcast,150,2013-03-02 05:35:00
9:55 PM,53.6,46.4,77,30.30,10.0,South,11.5,18.4,N/A,,Overcast,170,2013-03-02 05:55:00
10:15 PM,53.6,46.4,77,30.30,10.0,SSE,15.0,19.6,N/A,,Overcast,160,2013-03-02 06:15:00
10:35 PM,53.6,46.4,77,30.29,10.0,SSE,13.8,-,N/A,,Overcast,150,2013-03-02 06:35:00
10:55 PM,53.6,46.4,77,30.28,10.0,SE,13.8,17.3,N/A,,Overcast,140,2013-03-02 06:55:00
11:15 PM,53.6,46.4,77,30.28,10.0,SE,15.0,19.6,N/A,,Overcast,130,2013-03-02 07:15:00
11:35 PM,53.6,46.4,77,30.28,10.0,SE,16.1,-,N/A,,Overcast,140,2013-03-02 07:35:00
11:55 PM,53.6,46.4,77,30.28,10.0,SSE,16.1,21.9,N/A,,Overcast,150,2013-03-02 07:55:00